Location: Cruquius
(52.3348°N, 4.6319°E)
Time: 19:18:43
(UTC+00:00)

Meteor 1-12 Rocket - Pass Details

Date: 12 May 2021
Orbit: 854 x 927 km, 81.2° (Epoch: 20 June)

Event Time Altitude Azimuth Distance (km) Brightness Sun altitude
Rises 23:01:26 0° 347° (NNW) 3,549 9.1 -18.8°
Reaches altitude 10° 23:03:57 10° 350° (N) 2,593 8.0 -18.9°
Maximum altitude 23:09:51 70° 74° (ENE) 948 4.4 -19.0°
Enters shadow 23:12:41 31° 151° (SSE) 1,493 5.0 -19.1°
